TERRA

导读 | 星芒AI

TERRA 卫星是由美国国家航空航天局(NASA)于1999年发射的地球观测卫星,是“地球观测系统”(EOS)计划的一部分。该卫星搭载多种科学仪器,用于监测地球的大气、陆地、海洋和冰雪覆盖等环境要素,提供全球范围的高分辨率数据。TERRA 卫星在气候研究、自然灾害监测和环境变化评估中发挥着重要作用,为科学家研究全球变暖、森林砍伐和空气质量等问题提供了关键数据支持。

基本信息
目录编号:
25994
目录名称:
TERRA
国际标识:
1999-068A
轨道中心:
EARTH
卫星名称:
TERRA
卫星全名:
--
卫星状态:
在轨 (已飞行9494 天)
发射日期:
1999-12-18 UTC
国别 :
美国 (US)
星等 :
--
轨道信息
数据来源 国际轨道数据 AOE轨道数据
星历时间 2025-12-15T06:24:43+0800
20小时前
查看轨道信息
2025-12-13T11:00:00+0800
2天前
查看轨道信息
半长轴 7068.393km 7068.398km
偏心率 0.0003602 0.0003761
轨道倾角 97.975° 97.973°
近地点辐角 90.190° 95.389°
升交点赤经 40.538° 38.796°
平近点角 12.812° 220.185°
近地点 687.711km 687.604km
远地点 692.805km 692.922km
周期 98.569分钟 98.569分钟
每日圈数 14.609042 14.609029
详细信息
使用方式:
暂无
2D轨道图
3D轨道图
轨道高度分析图
轨道倾角分析图
轨道综合分析图
查看轨道综合分析图